Weather History for KART - November, 2011

Change the Weather History Date:

Friday, November 4, 2011

  Actual Average Record
Temperature  
Mean Temperature 35 °F 42 °F  
Max Temperature 48 °F 51 °F 67 °F (1987)
Min Temperature 22 °F 33 °F 13 °F (1989)
Degree Days  
Heating Degree Days 30 23  
Month to date heating degree days 85 89  
Since 1 July heating degree days 679 885  
Cooling Degree Days 0 0  
Month to date cooling degree days 0 0  
Year to date cooling degree days 513 362  
Moisture  
Dew Point 28 °F    
Average Humidity 69    
Maximum Humidity 96    
Minimum Humidity 42    
Precipitation  
Precipitation 0.00 in 0.13 in 2.90 in (1950)
Month to date precipitation T 0.51  
Year to date precipitation 36.02 29.68  
Sea Level Pressure  
Sea Level Pressure 30.23 in    
Wind  
Wind Speed 5 mph (North)    
Max Wind Speed 18 mph    
Max Gust Speed 23 mph    
Visibility 10 miles    
Events      
T = Trace of Precipitation, MM = Missing Value Source: NWS Daily Summary

Daily Weather History Graph

Daily Weather History Graph

Search for Another Location

Airport or City:

Trip Planner

Search our weather history database for the weather conditions in past years. The results will help you decide how hot, cold, wet, or windy it might be!

Date:

Astronomy

Nov. 04, 2011 Rise Set
Actual Time 7:44 AM EDT 5:50 PM EDT
Civil Twilight 7:13 AM EDT 6:20 PM EDT
Nautical Twilight 6:39 AM EDT 6:55 PM EDT
Astronomical Twilight 6:05 AM EDT 7:28 PM EDT
Moon 2:51 PM EDT (11/4) 1:42 AM EDT (11/4)
Length of Visible Light 11h 07m
Length of Day
10h 06m
Waxing Gibbous, 69% of the Moon is Illuminated
Nov 4
Waxing Gibbous
Nov 10
Full
Nov 18
Last Quarter
Nov 25
New
Dec 2
First Quarter

Hourly Weather History & Observations

Time (EDT) Temp. Windchill Dew Point Humidity Pressure Visibility Wind Dir Wind Speed Gust Speed Precip Events Conditions
12:56 AM 37.9 °F 35.5 °F 35.1 °F 89% 30.08 in 10.0 mi North 3.5 mph - N/A   Clear
1:56 AM 37.4 °F 32.1 °F 35.6 °F 93% 30.08 in 10.0 mi North 6.9 mph - N/A   Clear
2:56 AM 36.0 °F 31.1 °F 33.1 °F 89% 30.09 in 10.0 mi North 5.8 mph - N/A   Clear
3:56 AM 33.8 °F 30.8 °F 32.0 °F 93% 30.11 in 10.0 mi North 3.5 mph - N/A   Clear
4:56 AM 33.1 °F 30.0 °F 30.9 °F 92% 30.13 in 10.0 mi North 3.5 mph - N/A   Clear
5:56 AM 33.1 °F 26.9 °F 28.9 °F 85% 30.16 in 10.0 mi North 6.9 mph - N/A   Clear
6:56 AM 28.9 °F - 27.0 °F 92% 30.18 in 10.0 mi Calm Calm - N/A   Clear
7:56 AM 26.1 °F - 25.0 °F 96% 30.19 in 10.0 mi Calm Calm - N/A   Clear
8:56 AM 30.9 °F - 28.9 °F 92% 30.20 in 10.0 mi Calm Calm - N/A   Clear
9:56 AM 37.9 °F - 32.0 °F 79% 30.21 in 10.0 mi Calm Calm - N/A   Clear
10:56 AM 39.9 °F - 33.1 °F 77% 30.22 in 10.0 mi Calm Calm - N/A   Scattered Clouds
11:56 AM 45.0 °F 39.3 °F 32.0 °F 60% 30.22 in 10.0 mi NNW 11.5 mph - N/A   Clear
12:56 PM 46.0 °F 40.6 °F 28.9 °F 51% 30.22 in 10.0 mi NNE 11.5 mph - N/A   Mostly Cloudy
1:56 PM 46.4 °F 40.1 °F 26.6 °F 46% 30.21 in 10.0 mi North 15.0 mph - N/A   Scattered Clouds
2:56 PM 46.0 °F 39.6 °F 25.0 °F 44% 30.23 in 10.0 mi North 15.0 mph 20.7 mph N/A   Scattered Clouds
3:56 PM 45.0 °F 39.7 °F 25.0 °F 46% 30.26 in 10.0 mi North 10.4 mph - N/A   Scattered Clouds
4:56 PM 43.0 °F 38.2 °F 26.1 °F 51% 30.28 in 10.0 mi North 8.1 mph - N/A   Partly Cloudy
5:56 PM 39.2 °F 33.0 °F 26.6 °F 61% 30.31 in 10.0 mi North 9.2 mph - N/A   Scattered Clouds
6:56 PM 36.0 °F 31.1 °F 25.0 °F 64% 30.35 in 10.0 mi NNE 5.8 mph - N/A   Partly Cloudy
7:56 PM 34.0 °F 31.0 °F 25.0 °F 70% 30.36 in 10.0 mi North 3.5 mph - N/A   Clear
8:56 PM 28.9 °F 25.2 °F 24.1 °F 82% 30.38 in 10.0 mi SE 3.5 mph - N/A   Clear
9:56 PM 27.0 °F - 23.0 °F 85% 30.38 in 10.0 mi Calm Calm - N/A   Clear
10:56 PM 24.8 °F 20.5 °F 21.2 °F 86% 30.38 in 10.0 mi ESE 3.5 mph - N/A   Clear
11:56 PM 23.0 °F - 21.0 °F 92% 30.39 in 10.0 mi Calm Calm - N/A   Clear